Location: Bailleul
(50.3375°N, 2.8513°E)
Time: 10:28:53
(UTC+00:00)

Cosmos 2360 Rocket - Pass Details

Date: 16 June 2021
Orbit: 835 x 843 km, 71.0° (Epoch: 27 July)

Event Time Altitude Azimuth Distance (km) Brightness Sun altitude
Rises 21:41:57 0° 206° (SSW) 3,383 5.0 -11.1°
Reaches altitude 10° 21:44:23 10° 207° (SSW) 2,452 4.3 -11.3°
Maximum altitude 21:50:01 89° 121° (ESE) 846 2.2 -11.7°
Drops below altitude 10° 21:55:42 10° 30° (NNE) 2,462 5.1 -12.1°
Sets 21:58:08 0° 30° (NNE) 3,399 5.9 -12.3°
